AD7CQ Weather Reports


Display with metric or nautical units.
time (UTC)temp
F
wind
direction
speed
MPH
gust
MPH
rain 1hr
in
rain 24hr
in
rain mn
in
humidity
%
barometer
mb
20260504210041 86 248 1.0 3.0 0.00 0.00 0.00 25 1003.8
20260504204538 85 359 1.0 5.0 0.00 0.00 0.00 25 1004.0
20260504203046 85 359 1.0 6.0 0.00 0.00 0.00 27 1004.1
20260504201532 85 274 1.0 4.0 0.00 0.00 0.00 28 1004.4
20260504200030 85 4 1.0 5.0 0.00 0.00 0.00 27 1004.5
20260504194537 84 29 1.0 8.0 0.00 0.00 0.00 28 1004.5
20260504193027 84 8 1.0 4.0 0.00 0.00 0.00 29 1004.6
20260504191534 83 359 0.0 3.0 0.00 0.00 0.00 28 1004.8
20260504190020 83 294 0.0 5.0 0.00 0.00 0.00 28 1004.8
20260504184518 81 272 0.0 2.0 0.00 0.00 0.00 28 1005.0
20260504183012 79 261 1.0 6.0 0.00 0.00 0.00 32 1005.0
20260504181514 79 234 1.0 5.0 0.00 0.00 0.00 34 1005.1
20260504180007 78 261 1.0 5.0 0.00 0.00 0.00 36 1005.2
20260504174501 76 275 1.0 4.0 0.00 0.00 0.00 41 1005.3
20260504173057 75 16 0.0 2.0 0.00 0.00 0.00 42 1005.3
20260504171558 74 20 0.0 0.0 0.00 0.00 0.00 44 1005.3
20260504081512 62 18 0.0 0.0 0.00 0.00 0.00 58 1004.4
20260504044549 73 19 0.0 0.0 0.00 0.00 0.00 35 1004.4
20260504043049 74 19 0.0 0.0 0.00 0.00 0.00 34 1004.4
20260504041549 74 18 0.0 2.0 0.00 0.00 0.00 33 1004.4
20260504040110 75 18 0.0 0.0 0.00 0.00 0.00 33 1004.3
20260504034547 76 18 0.0 0.0 0.00 0.00 0.00 31 1004.3
20260504033047 78 19 0.0 0.0 0.00 0.00 0.00 31 1004.2
20260504031548 80 18 0.0 0.0 0.00 0.00 0.00 27 1004.2
20260504030046 82 19 0.0 0.0 0.00 0.00 0.00 26 1004.1
20260504024548 83 18 0.0 0.0 0.00 0.00 0.00 24 1004.2
20260504023053 83 20 0.0 1.0 0.00 0.00 0.00 23 1004.3
20260504021545 84 19 0.0 2.0 0.00 0.00 0.00 22 1004.3
20260504020041 85 16 0.0 3.0 0.00 0.00 0.00 21 1004.4
20260504014551 86 16 0.0 3.0 0.00 0.00 0.00 21 1004.5
20260504013038 86 12 0.0 0.0 0.00 0.00 0.00 20 1004.7
20260504011540 87 11 0.0 0.0 0.00 0.00 0.00 20 1004.7
20260504010035 87 12 0.0 5.0 0.00 0.00 0.00 21 1005.1
20260504004542 88 4 1.0 4.0 0.00 0.00 0.00 20 1005.2
20260504003031 87 359 1.0 4.0 0.00 0.00 0.00 21 1005.4
20260504001530 87 359 0.0 7.0 0.00 0.00 0.00 20 1005.6
20260504000029 87 29 0.0 8.0 0.00 0.00 0.00 20 1005.7
20260503234529 87 359 1.0 9.0 0.00 0.00 0.00 21 1005.9
20260503233026 87 8 1.0 10.0 0.00 0.00 0.00 19 1006.1
20260503231524 88 290 1.0 6.0 0.00 0.00 0.00 21 1006.3
20260503230026 88 4 1.0 5.0 0.00 0.00 0.00 22 1006.4
20260503224518 88 257 2.0 6.0 0.00 0.00 0.00 22 1006.7
20260503223016 88 8 1.0 6.0 0.00 0.00 0.00 20 1006.8
20260503221514 88 324 1.0 4.0 0.00 0.00 0.00 24 1007.0
20260503220011 87 284 0.0 5.0 0.00 0.00 0.00 24 1007.2
20260503214508 86 24 1.0 4.0 0.00 0.00 0.00 25 1007.5
20260503213006 87 10 1.0 4.0 0.00 0.00 0.00 24 1007.7
20260503211505 87 359 1.0 4.0 0.00 0.00 0.00 23 1007.9